Time,TemperatureF,DewpointF,PressureIn,WindDirection,WindDirectionDegrees,WindSpeedMPH,WindSpeedGustMPH,Humidity,HourlyPrecipIn,Conditions,Clouds,dailyrainin,SoftwareType,DateUTC
2013-08-02 00:01:00,69.2,67.1,29.84,West,267,0.0,2.0,93,0.00,,,0.00,LWC V2.10 B1813,2013-08-02 04:01:00,
2013-08-02 00:02:00,69.2,67.1,29.84,West,261,0.0,2.0,93,0.00,,,0.00,LWC V2.10 B1813,2013-08-02 04:02:00,
2013-08-02 00:03:00,69.2,67.1,29.84,SSW,195,1.0,2.0,93,0.00,,,0.00,LWC V2.10 B1813,2013-08-02 04:03:00,
2013-08-02 00:07:00,69.2,67.1,29.84,West,263,0.0,3.0,93,0.00,,,0.00,LWC V2.10 B1813,2013-08-02 04:07:00,
2013-08-02 00:13:00,69.4,67.3,29.84,WSW,257,2.0,3.0,93,0.00,,,0.00,LWC V2.10 B1813,2013-08-02 04:13:00,
2013-08-02 00:18:00,69.5,67.4,29.84,West,259,5.0,6.0,93,0.00,,,0.00,LWC V2.10 B1813,2013-08-02 04:18:00,
2013-08-02 00:23:00,69.7,67.6,29.84,WSW,253,4.0,5.0,93,0.00,,,0.00,LWC V2.10 B1813,2013-08-02 04:23:00,
2013-08-02 00:28:00,69.9,67.8,29.84,West,259,5.0,6.0,93,0.00,,,0.00,LWC V2.10 B1813,2013-08-02 04:28:00,
2013-08-02 00:30:00,69.0,65.9,29.90,SE,135,4.0,10.0,90,0.00,,,0.00,LWC V2.10 B1813,2013-08-02 04:30:00,
2013-08-02 00:33:00,70.0,67.9,29.83,WSW,256,4.0,6.0,93,0.00,,,0.00,LWC V2.10 B1813,2013-08-02 04:33:00,
2013-08-02 00:39:00,70.1,68.0,29.83,West,261,4.0,5.0,93,0.00,,,0.00,LWC V2.10 B1813,2013-08-02 04:39:00,
2013-08-02 00:40:00,70.1,68.0,29.83,West,259,4.0,6.0,93,0.00,,,0.00,LWC V2.10 B1813,2013-08-02 04:40:00,
2013-08-02 00:50:00,69.9,68.7,29.83,West,270,3.0,9.0,96,0.00,,,0.00,LWC V2.10 B1813,2013-08-02 04:50:00,
2013-08-02 01:00:00,70.0,68.8,29.83,SE,135,2.0,7.0,96,0.00,,,0.00,LWC V2.10 B1813,2013-08-02 05:00:00,
2013-08-02 01:10:00,70.0,69.1,29.82,East,90,4.0,9.0,97,0.00,,,0.00,LWC V2.10 B1813,2013-08-02 05:10:00,
2013-08-02 01:20:00,69.9,69.0,29.81,ESE,112,2.0,7.0,97,0.00,,,0.00,LWC V2.10 B1813,2013-08-02 05:20:00,
2013-08-02 01:30:00,69.9,69.0,29.81,SE,135,3.0,9.0,97,0.00,,,0.00,LWC V2.10 B1813,2013-08-02 05:30:00,
2013-08-02 01:40:00,70.0,69.4,29.80,SSE,158,3.0,7.0,98,0.00,,,0.00,LWC V2.10 B1813,2013-08-02 05:40:00,
2013-08-02 01:50:00,69.9,69.3,29.80,SE,135,3.0,8.0,98,0.11,,,0.00,LWC V2.10 B1813,2013-08-02 05:50:00,
2013-08-02 02:00:00,69.5,68.9,29.79,SSE,158,3.0,7.0,98,0.19,,,0.00,LWC V2.10 B1813,2013-08-02 06:00:00,
2013-08-02 02:10:00,69.7,69.1,29.79,East,90,2.0,7.0,98,0.04,,,0.00,LWC V2.10 B1813,2013-08-02 06:10:00,
2013-08-02 02:20:00,69.8,69.8,29.78,SE,135,3.0,8.0,100,0.00,,,0.00,LWC V2.10 B1813,2013-08-02 06:20:00,
2013-08-02 02:30:00,69.6,69.0,29.78,SE,135,5.0,10.0,98,0.46,,,0.00,LWC V2.10 B1813,2013-08-02 06:30:00,
2013-08-02 02:40:00,69.4,69.1,29.78,South,180,3.0,6.0,99,0.06,,,0.00,LWC V2.10 B1813,2013-08-02 06:40:00,
2013-08-02 02:50:00,69.6,69.3,29.78,SSE,158,1.0,5.0,99,0.04,,,0.00,LWC V2.10 B1813,2013-08-02 06:50:00,
2013-08-02 03:00:00,69.9,69.6,29.78,South,180,5.0,9.0,99,0.04,,,0.00,LWC V2.10 B1813,2013-08-02 07:00:00,
2013-08-02 03:10:00,69.9,69.6,29.77,South,180,6.0,11.0,99,0.00,,,0.00,LWC V2.10 B1813,2013-08-02 07:10:00,
2013-08-02 03:20:00,69.4,69.1,29.77,South,180,3.0,8.0,99,0.00,,,0.00,LWC V2.10 B1813,2013-08-02 07:20:00,
2013-08-02 03:30:00,69.8,69.5,29.77,South,180,3.0,8.0,99,0.00,,,0.00,LWC V2.10 B1813,2013-08-02 07:30:00,
2013-08-02 03:40:00,69.8,69.5,29.77,SSE,158,3.0,8.0,99,0.00,,,0.00,LWC V2.10 B1813,2013-08-02 07:40:00,
2013-08-02 03:50:00,69.9,69.6,29.77,South,180,5.0,9.0,99,0.00,,,0.00,LWC V2.10 B1813,2013-08-02 07:50:00,
2013-08-02 04:00:00,69.9,69.6,29.77,SSW,202,3.0,7.0,99,0.00,,,0.00,LWC V2.10 B1813,2013-08-02 08:00:00,
2013-08-02 04:10:00,70.0,69.7,29.77,SSW,202,3.0,8.0,99,0.00,,,0.00,LWC V2.10 B1813,2013-08-02 08:10:00,
2013-08-02 04:20:00,70.1,69.8,29.77,South,180,4.0,9.0,99,0.00,,,0.00,LWC V2.10 B1813,2013-08-02 08:20:00,
2013-08-02 04:30:00,70.2,69.6,29.77,South,180,5.0,8.0,98,0.00,,,0.00,LWC V2.10 B1813,2013-08-02 08:30:00,
2013-08-02 04:40:00,70.4,69.8,29.77,South,180,4.0,8.0,98,0.00,,,0.00,LWC V2.10 B1813,2013-08-02 08:40:00,
2013-08-02 04:50:00,70.6,70.0,29.78,South,180,4.0,9.0,98,0.00,,,0.00,LWC V2.10 B1813,2013-08-02 08:50:00,
2013-08-02 05:00:00,70.7,70.1,29.77,SSE,158,5.0,11.0,98,0.00,,,0.00,LWC V2.10 B1813,2013-08-02 09:00:00,
2013-08-02 05:10:00,70.6,70.0,29.77,SSE,158,4.0,9.0,98,0.00,,,0.00,LWC V2.10 B1813,2013-08-02 09:10:00,
2013-08-02 05:20:00,70.6,70.0,29.78,SSE,158,4.0,12.0,98,0.00,,,0.00,LWC V2.10 B1813,2013-08-02 09:20:00,
2013-08-02 05:30:00,70.7,70.1,29.78,SW,225,5.0,10.0,98,0.00,,,0.00,LWC V2.10 B1813,2013-08-02 09:30:00,
2013-08-02 05:40:00,70.8,70.2,29.78,SW,225,7.0,12.0,98,0.00,,,0.00,LWC V2.10 B1813,2013-08-02 09:40:00,
2013-08-02 05:50:00,70.9,70.3,29.79,SSW,202,7.0,14.0,98,0.00,,,0.00,LWC V2.10 B1813,2013-08-02 09:50:00,
2013-08-02 06:05:00,70.5,69.9,29.79,South,188,5.0,11.0,98,0.00,,,0.10,LWC V2.10 B1813,2013-08-02 10:05:00,
2013-08-02 06:10:00,70.4,69.8,29.79,South,182,2.0,9.0,98,0.00,,,0.10,LWC V2.10 B1813,2013-08-02 10:10:00,
2013-08-02 06:15:00,70.3,69.7,29.79,WSW,246,8.0,11.0,98,0.00,,,0.10,LWC V2.10 B1813,2013-08-02 10:15:00,
2013-08-02 06:21:00,70.3,69.7,29.79,SW,234,3.0,9.0,98,0.00,,,0.10,LWC V2.10 B1813,2013-08-02 10:21:00,
2013-08-02 06:26:00,70.3,69.7,29.80,SW,227,8.0,8.0,98,0.00,,,0.10,LWC V2.10 B1813,2013-08-02 10:26:00,
2013-08-02 06:32:00,70.2,69.6,29.80,SSW,213,8.0,9.0,98,0.00,,,0.10,LWC V2.10 B1813,2013-08-02 10:32:00,
2013-08-02 06:37:00,70.1,69.5,29.80,WSW,244,5.0,9.0,98,0.00,,,0.10,LWC V2.10 B1813,2013-08-02 10:37:00,
2013-08-02 06:42:00,70.1,69.5,29.80,NW,321,1.0,12.0,98,0.00,,,0.10,LWC V2.10 B1813,2013-08-02 10:42:00,
2013-08-02 06:47:00,70.1,69.5,29.80,WSW,246,6.0,8.0,98,0.00,,,0.10,LWC V2.10 B1813,2013-08-02 10:47:00,
2013-08-02 06:52:00,70.0,69.4,29.80,West,271,0.0,7.0,98,0.00,,,0.10,LWC V2.10 B1813,2013-08-02 10:52:00,
2013-08-02 06:58:00,70.0,69.4,29.81,SW,236,6.0,10.0,98,0.00,,,0.10,LWC V2.10 B1813,2013-08-02 10:58:00,
2013-08-02 07:03:00,69.9,69.3,29.81,WNW,296,4.0,8.0,98,0.00,,,0.10,LWC V2.10 B1813,2013-08-02 11:03:00,
2013-08-02 07:08:00,69.9,69.3,29.81,SW,221,5.0,10.0,98,0.00,,,0.10,LWC V2.10 B1813,2013-08-02 11:08:00,
2013-08-02 07:13:00,69.9,69.3,29.81,West,263,2.0,7.0,98,0.00,,,0.10,LWC V2.10 B1813,2013-08-02 11:13:00,
2013-08-02 07:19:00,69.9,69.3,29.81,SW,233,5.0,8.0,98,0.00,,,0.10,LWC V2.10 B1813,2013-08-02 11:19:00,
2013-08-02 07:24:00,69.9,69.3,29.81,SSW,209,0.0,7.0,98,0.00,,,0.10,LWC V2.10 B1813,2013-08-02 11:24:00,
2013-08-02 07:29:00,70.1,69.2,29.81,WSW,248,6.0,8.0,97,0.00,,,0.10,LWC V2.10 B1813,2013-08-02 11:29:00,
2013-08-02 07:35:00,70.2,69.3,29.82,WSW,238,3.0,5.0,97,0.00,,,0.10,LWC V2.10 B1813,2013-08-02 11:35:00,
2013-08-02 07:40:00,70.3,69.4,29.82,WSW,246,6.0,6.0,97,0.00,,,0.10,LWC V2.10 B1813,2013-08-02 11:40:00,
2013-08-02 07:45:00,70.6,69.7,29.82,WSW,248,1.0,3.0,97,0.00,,,0.10,LWC V2.10 B1813,2013-08-02 11:45:00,
2013-08-02 07:50:00,71.0,70.1,29.83,WNW,303,5.0,5.0,97,0.00,,,0.10,LWC V2.10 B1813,2013-08-02 11:50:00,
2013-08-02 07:55:00,70.9,69.7,29.83,NW,307,0.0,7.0,96,0.00,,,0.10,LWC V2.10 B1813,2013-08-02 11:55:00,
2013-08-02 08:01:00,70.8,69.6,29.83,NNW,344,4.0,6.0,96,0.00,,,0.10,LWC V2.10 B1813,2013-08-02 12:01:00,
2013-08-02 08:06:00,70.9,69.7,29.83,WSW,250,3.0,10.0,96,0.00,,,0.10,LWC V2.10 B1813,2013-08-02 12:06:00,
2013-08-02 08:11:00,71.0,69.8,29.83,West,271,6.0,10.0,96,0.00,,,0.10,LWC V2.10 B1813,2013-08-02 12:11:00,
2013-08-02 08:17:00,71.0,69.5,29.83,WSW,238,2.0,6.0,95,0.00,,,0.10,LWC V2.10 B1813,2013-08-02 12:17:00,
2013-08-02 08:22:00,71.2,69.7,29.83,West,267,1.0,5.0,95,0.00,,,0.10,LWC V2.10 B1813,2013-08-02 12:22:00,
2013-08-02 08:27:00,71.5,69.7,29.83,West,273,1.0,3.0,94,0.00,,,0.10,LWC V2.10 B1813,2013-08-02 12:27:00,
2013-08-02 08:32:00,71.8,70.0,29.83,West,273,0.0,3.0,94,0.00,,,0.10,LWC V2.10 B1813,2013-08-02 12:32:00,
2013-08-02 08:37:00,72.0,69.9,29.83,West,273,0.0,10.0,93,0.00,,,0.10,LWC V2.10 B1813,2013-08-02 12:37:00,
2013-08-02 08:43:00,71.8,69.3,29.83,West,267,1.0,7.0,92,0.00,,,0.10,LWC V2.10 B1813,2013-08-02 12:43:00,
2013-08-02 08:48:00,72.1,70.0,29.83,West,273,8.0,8.0,93,0.00,,,0.10,LWC V2.10 B1813,2013-08-02 12:48:00,
2013-08-02 08:53:00,72.0,69.5,29.83,West,270,0.0,9.0,92,0.00,,,0.10,LWC V2.10 B1813,2013-08-02 12:53:00,
2013-08-02 08:59:00,72.1,69.6,29.83,North,350,0.0,5.0,92,0.00,,,0.10,LWC V2.10 B1813,2013-08-02 12:59:00,
2013-08-02 09:04:00,72.1,69.3,29.83,WSW,238,8.0,9.0,91,0.00,,,0.10,LWC V2.10 B1813,2013-08-02 13:04:00,
2013-08-02 09:09:00,72.2,69.1,29.84,West,277,0.0,7.0,90,0.00,,,0.10,LWC V2.10 B1813,2013-08-02 13:09:00,
2013-08-02 09:14:00,72.3,69.2,29.84,SW,236,8.0,10.0,90,0.00,,,0.10,LWC V2.10 B1813,2013-08-02 13:14:00,
2013-08-02 09:20:00,72.4,69.3,29.84,WNW,288,0.0,8.0,90,0.00,,,0.10,LWC V2.10 B1813,2013-08-02 13:20:00,
2013-08-02 09:25:00,72.6,69.2,29.84,WNW,284,3.0,12.0,89,0.00,,,0.10,LWC V2.10 B1813,2013-08-02 13:25:00,
2013-08-02 09:30:00,73.0,69.9,29.84,West,259,0.0,4.0,90,0.00,,,0.10,LWC V2.10 B1813,2013-08-02 13:30:00,
2013-08-02 09:35:00,73.0,69.2,29.84,WNW,295,3.0,13.0,88,0.00,,,0.10,LWC V2.10 B1813,2013-08-02 13:35:00,
2013-08-02 09:41:00,73.2,69.4,29.84,West,276,0.0,8.0,88,0.00,,,0.10,LWC V2.10 B1813,2013-08-02 13:41:00,
2013-08-02 09:46:00,73.4,69.3,29.84,WNW,282,8.0,10.0,87,0.00,,,0.10,LWC V2.10 B1813,2013-08-02 13:46:00,
2013-08-02 09:51:00,73.3,69.2,29.84,WNW,291,5.0,5.0,87,0.00,,,0.10,LWC V2.10 B1813,2013-08-02 13:51:00,
2013-08-02 09:57:00,73.4,68.6,29.84,WNW,295,3.0,10.0,85,0.00,,,0.10,LWC V2.10 B1813,2013-08-02 13:57:00,
2013-08-02 10:02:00,73.4,68.9,29.84,WNW,284,0.0,8.0,86,0.00,,,0.10,LWC V2.10 B1813,2013-08-02 14:02:00,
2013-08-02 10:07:00,73.8,69.3,29.84,SW,236,7.0,7.0,86,0.00,,,0.10,LWC V2.10 B1813,2013-08-02 14:07:00,
2013-08-02 10:13:00,74.1,69.3,29.85,WSW,251,10.0,10.0,85,0.00,,,0.10,LWC V2.10 B1813,2013-08-02 14:13:00,
2013-08-02 10:18:00,73.9,68.7,29.85,West,272,4.0,13.0,84,0.00,,,0.10,LWC V2.10 B1813,2013-08-02 14:18:00,
2013-08-02 10:25:00,74.2,69.4,29.85,NW,318,6.0,8.0,85,0.00,,,0.10,LWC V2.10 B1813,2013-08-02 14:25:00,
2013-08-02 10:30:00,74.3,69.1,29.85,West,263,2.0,10.0,84,0.00,,,0.10,LWC V2.10 B1813,2013-08-02 14:30:00,
2013-08-02 10:35:00,74.4,69.2,29.85,WNW,283,4.0,6.0,84,0.00,,,0.10,LWC V2.10 B1813,2013-08-02 14:35:00,
2013-08-02 10:40:00,74.8,69.6,29.85,SW,229,6.0,7.0,84,0.00,,,0.10,LWC V2.10 B1813,2013-08-02 14:40:00,
2013-08-02 10:46:00,74.9,69.4,29.85,NW,324,6.0,9.0,83,0.00,,,0.10,LWC V2.10 B1813,2013-08-02 14:46:00,
2013-08-02 10:51:00,75.1,69.2,29.85,West,268,3.0,9.0,82,0.00,,,0.10,LWC V2.10 B1813,2013-08-02 14:51:00,
2013-08-02 10:56:00,75.2,69.3,29.86,WNW,291,4.0,7.0,82,0.00,,,0.10,LWC V2.10 B1813,2013-08-02 14:56:00,
2013-08-02 11:01:00,75.1,69.2,29.86,WNW,287,2.0,8.0,82,0.00,,,0.10,LWC V2.10 B1813,2013-08-02 15:01:00,
2013-08-02 11:07:00,75.6,69.7,29.86,WSW,248,3.0,9.0,82,0.00,,,0.10,LWC V2.10 B1813,2013-08-02 15:07:00,
2013-08-02 11:12:00,75.9,69.3,29.86,West,275,2.0,7.0,80,0.00,,,0.10,LWC V2.10 B1813,2013-08-02 15:12:00,
2013-08-02 11:17:00,76.2,69.2,29.86,West,271,2.0,9.0,79,0.00,,,0.10,LWC V2.10 B1813,2013-08-02 15:17:00,
2013-08-02 11:22:00,75.7,68.3,29.86,West,273,6.0,8.0,78,0.00,,,0.10,LWC V2.10 B1813,2013-08-02 15:22:00,
2013-08-02 11:28:00,75.8,68.4,29.86,NW,323,5.0,10.0,78,0.00,,,0.10,LWC V2.10 B1813,2013-08-02 15:28:00,
2013-08-02 11:33:00,76.2,68.8,29.86,NW,313,2.0,7.0,78,0.00,,,0.10,LWC V2.10 B1813,2013-08-02 15:33:00,
2013-08-02 11:38:00,76.3,68.5,29.86,WSW,250,5.0,11.0,77,0.00,,,0.10,LWC V2.10 B1813,2013-08-02 15:38:00,
2013-08-02 11:43:00,75.9,68.9,29.86,SW,227,10.0,10.0,79,0.00,,,0.10,LWC V2.10 B1813,2013-08-02 15:43:00,
2013-08-02 11:49:00,75.9,69.3,29.86,WSW,251,9.0,9.0,80,0.00,,,0.10,LWC V2.10 B1813,2013-08-02 15:49:00,
2013-08-02 11:54:00,75.6,69.3,29.86,WSW,242,6.0,9.0,81,0.00,,,0.10,LWC V2.10 B1813,2013-08-02 15:54:00,
2013-08-02 11:59:00,76.0,69.0,29.86,West,273,5.0,7.0,79,0.00,,,0.10,LWC V2.10 B1813,2013-08-02 15:59:00,
2013-08-02 12:04:00,76.0,69.0,29.86,SW,232,3.0,12.0,79,0.00,,,0.10,LWC V2.10 B1813,2013-08-02 16:04:00,
2013-08-02 12:10:00,75.9,69.3,29.86,West,263,3.0,9.0,80,0.00,,,0.10,LWC V2.10 B1813,2013-08-02 16:10:00,
2013-08-02 12:15:00,76.3,69.3,29.86,WSW,243,8.0,8.0,79,0.00,,,0.10,LWC V2.10 B1813,2013-08-02 16:15:00,
2013-08-02 12:20:00,76.2,68.4,29.86,West,264,3.0,8.0,77,0.00,,,0.10,LWC V2.10 B1813,2013-08-02 16:20:00,
2013-08-02 12:25:00,76.3,68.5,29.86,West,267,9.0,10.0,77,0.00,,,0.10,LWC V2.10 B1813,2013-08-02 16:25:00,
2013-08-02 12:30:00,76.4,68.3,29.86,WSW,249,6.0,15.0,76,0.00,,,0.00,LWC V2.10 B1813,2013-08-02 16:30:00,
2013-08-02 12:31:00,76.5,68.4,29.86,SSW,210,9.0,9.0,76,0.00,,,0.10,LWC V2.10 B1813,2013-08-02 16:31:00,
2013-08-02 12:40:00,76.6,68.4,29.86,SW,225,5.0,11.0,76,0.00,,,0.00,LWC V2.10 B1813,2013-08-02 16:40:00,
2013-08-02 12:50:00,77.0,68.4,29.85,SW,225,5.0,10.0,75,0.00,,,0.00,LWC V2.10 B1813,2013-08-02 16:50:00,
2013-08-02 13:00:00,77.4,69.2,29.86,SW,225,5.0,13.0,76,0.00,,,0.00,LWC V2.10 B1813,2013-08-02 17:00:00,
2013-08-02 13:10:00,77.7,68.7,29.86,West,270,4.0,12.0,74,0.00,,,0.00,LWC V2.10 B1813,2013-08-02 17:10:00,
2013-08-02 13:20:00,78.1,68.7,29.86,SW,225,5.0,11.0,73,0.00,,,0.00,LWC V2.10 B1813,2013-08-02 17:20:00,
2013-08-02 13:38:00,78.9,68.3,29.86,West,265,2.0,10.0,70,0.00,,,0.10,LWC V2.10 B1813,2013-08-02 17:38:00,
2013-08-02 13:43:00,78.8,67.7,29.86,SW,223,3.0,8.0,69,0.00,,,0.10,LWC V2.10 B1813,2013-08-02 17:43:00,
2013-08-02 13:48:00,79.1,68.0,29.86,SW,234,10.0,10.0,69,0.00,,,0.10,LWC V2.10 B1813,2013-08-02 17:48:00,
2013-08-02 13:53:00,78.7,67.2,29.86,South,187,8.0,12.0,68,0.00,,,0.10,LWC V2.10 B1813,2013-08-02 17:53:00,
2013-08-02 13:58:00,78.9,67.8,29.86,South,178,5.0,8.0,69,0.00,,,0.10,LWC V2.10 B1813,2013-08-02 17:58:00,
2013-08-02 14:04:00,79.3,67.8,29.85,SW,231,7.0,8.0,68,0.00,,,0.10,LWC V2.10 B1813,2013-08-02 18:04:00,
2013-08-02 14:09:00,79.5,67.6,29.85,SW,229,6.0,11.0,67,0.00,,,0.10,LWC V2.10 B1813,2013-08-02 18:09:00,
2013-08-02 14:14:00,79.6,67.7,29.85,South,189,5.0,14.0,67,0.00,,,0.10,LWC V2.10 B1813,2013-08-02 18:14:00,
2013-08-02 14:20:00,79.9,67.5,29.85,SW,229,0.0,9.0,66,0.00,,,0.10,LWC V2.10 B1813,2013-08-02 18:20:00,
2013-08-02 14:25:00,80.1,67.2,29.84,SSW,208,7.0,11.0,65,0.00,,,0.10,LWC V2.10 B1813,2013-08-02 18:25:00,
2013-08-02 14:30:00,80.1,65.9,29.84,SSW,202,12.0,12.0,62,0.00,,,0.10,LWC V2.10 B1813,2013-08-02 18:30:00,
2013-08-02 14:35:00,79.9,66.2,29.84,WSW,238,7.0,10.0,63,0.00,,,0.10,LWC V2.10 B1813,2013-08-02 18:35:00,
2013-08-02 14:41:00,80.1,66.8,29.85,WSW,247,4.0,9.0,64,0.00,,,0.10,LWC V2.10 B1813,2013-08-02 18:41:00,
2013-08-02 14:46:00,80.4,66.6,29.85,WSW,258,13.0,13.0,63,0.00,,,0.10,LWC V2.10 B1813,2013-08-02 18:46:00,
2013-08-02 14:51:00,80.3,64.6,29.85,SSW,206,2.0,13.0,59,0.00,,,0.10,LWC V2.10 B1813,2013-08-02 18:51:00,
2013-08-02 14:56:00,80.7,65.5,29.85,West,276,13.0,13.0,60,0.00,,,0.10,LWC V2.10 B1813,2013-08-02 18:56:00,
2013-08-02 15:01:00,80.9,64.7,29.85,West,259,10.0,14.0,58,0.00,,,0.10,LWC V2.10 B1813,2013-08-02 19:01:00,
2013-08-02 15:07:00,80.8,66.1,29.85,West,279,4.0,13.0,61,0.00,,,0.10,LWC V2.10 B1813,2013-08-02 19:07:00,
2013-08-02 15:12:00,80.8,65.6,29.85,WSW,252,4.0,8.0,60,0.00,,,0.10,LWC V2.10 B1813,2013-08-02 19:12:00,
2013-08-02 15:17:00,80.9,65.7,29.85,WSW,258,7.0,13.0,60,0.00,,,0.10,LWC V2.10 B1813,2013-08-02 19:17:00,
2013-08-02 15:23:00,81.1,65.4,29.84,South,177,8.0,13.0,59,0.00,,,0.10,LWC V2.10 B1813,2013-08-02 19:23:00,
2013-08-02 15:28:00,81.3,66.1,29.85,SW,215,8.0,9.0,60,0.00,,,0.10,LWC V2.10 B1813,2013-08-02 19:28:00,
2013-08-02 15:33:00,81.5,66.7,29.85,WSW,247,0.0,6.0,61,0.00,,,0.10,LWC V2.10 B1813,2013-08-02 19:33:00,
2013-08-02 15:38:00,81.6,65.9,29.85,West,262,7.0,13.0,59,0.00,,,0.10,LWC V2.10 B1813,2013-08-02 19:38:00,
2013-08-02 15:44:00,81.7,66.9,29.85,SW,236,3.0,12.0,61,0.00,,,0.10,LWC V2.10 B1813,2013-08-02 19:44:00,
2013-08-02 15:49:00,81.7,66.4,29.85,WSW,238,8.0,11.0,60,0.00,,,0.10,LWC V2.10 B1813,2013-08-02 19:49:00,
2013-08-02 15:54:00,81.6,65.9,29.85,WSW,242,5.0,15.0,59,0.00,,,0.10,LWC V2.10 B1813,2013-08-02 19:54:00,
2013-08-02 15:59:00,81.4,64.7,29.85,WSW,250,11.0,15.0,57,0.00,,,0.10,LWC V2.10 B1813,2013-08-02 19:59:00,
2013-08-02 16:05:00,81.0,64.8,29.84,WSW,251,7.0,15.0,58,0.00,,,0.10,LWC V2.10 B1813,2013-08-02 20:05:00,
2013-08-02 16:10:00,80.6,65.9,29.84,WSW,244,16.0,16.0,61,0.00,,,0.10,LWC V2.10 B1813,2013-08-02 20:10:00,
2013-08-02 16:15:00,80.8,66.1,29.84,SW,220,6.0,11.0,61,0.00,,,0.10,LWC V2.10 B1813,2013-08-02 20:15:00,
2013-08-02 16:20:00,81.0,66.7,29.84,WSW,238,3.0,13.0,62,0.00,,,0.10,LWC V2.10 B1813,2013-08-02 20:20:00,
2013-08-02 16:26:00,81.2,66.4,29.84,SW,236,4.0,15.0,61,0.00,,,0.10,LWC V2.10 B1813,2013-08-02 20:26:00,
2013-08-02 16:31:00,81.0,66.7,29.84,WSW,237,2.0,9.0,62,0.00,,,0.10,LWC V2.10 B1813,2013-08-02 20:31:00,
2013-08-02 16:36:00,81.4,66.2,29.84,SW,223,6.0,14.0,60,0.00,,,0.10,LWC V2.10 B1813,2013-08-02 20:36:00,
2013-08-02 16:41:00,81.3,66.1,29.84,SSW,195,6.0,10.0,60,0.00,,,0.10,LWC V2.10 B1813,2013-08-02 20:41:00,
2013-08-02 16:47:00,81.5,66.2,29.84,SSW,211,6.0,8.0,60,0.00,,,0.10,LWC V2.10 B1813,2013-08-02 20:47:00,
2013-08-02 16:52:00,81.4,67.1,29.84,West,259,10.0,14.0,62,0.00,,,0.10,LWC V2.10 B1813,2013-08-02 20:52:00,
2013-08-02 16:58:00,80.7,70.0,29.84,South,178,2.0,8.0,70,0.00,,,0.10,LWC V2.10 B1813,2013-08-02 20:58:00,
2013-08-02 17:03:00,79.6,69.3,29.84,South,189,8.0,13.0,71,0.00,,,0.10,LWC V2.10 B1813,2013-08-02 21:03:00,
2013-08-02 17:08:00,79.2,69.8,29.84,SSE,152,8.0,13.0,73,0.00,,,0.10,LWC V2.10 B1813,2013-08-02 21:08:00,
2013-08-02 17:13:00,78.9,69.1,29.84,South,190,10.0,15.0,72,0.00,,,0.10,LWC V2.10 B1813,2013-08-02 21:13:00,
2013-08-02 17:19:00,78.7,69.7,29.84,SSE,153,9.0,10.0,74,0.00,,,0.10,LWC V2.10 B1813,2013-08-02 21:19:00,
2013-08-02 17:24:00,78.7,69.7,29.84,SSE,150,6.0,10.0,74,0.00,,,0.10,LWC V2.10 B1813,2013-08-02 21:24:00,
2013-08-02 17:29:00,78.8,69.8,29.84,SE,141,11.0,12.0,74,0.00,,,0.10,LWC V2.10 B1813,2013-08-02 21:29:00,
2013-08-02 17:34:00,78.6,69.6,29.85,South,173,12.0,12.0,74,0.00,,,0.10,LWC V2.10 B1813,2013-08-02 21:34:00,
2013-08-02 17:40:00,78.3,69.3,29.85,SSE,155,16.0,16.0,74,0.00,,,0.10,LWC V2.10 B1813,2013-08-02 21:40:00,
2013-08-02 17:45:00,78.4,69.8,29.84,SSE,163,8.0,11.0,75,0.00,,,0.10,LWC V2.10 B1813,2013-08-02 21:45:00,
2013-08-02 17:50:00,78.2,69.6,29.84,SSE,163,8.0,15.0,75,0.00,,,0.10,LWC V2.10 B1813,2013-08-02 21:50:00,
2013-08-02 17:55:00,77.9,69.7,29.84,South,172,10.0,17.0,76,0.00,,,0.10,LWC V2.10 B1813,2013-08-02 21:55:00,
2013-08-02 18:00:00,77.7,69.9,29.84,South,181,9.0,17.0,77,0.00,,,0.10,LWC V2.10 B1813,2013-08-02 22:00:00,
2013-08-02 18:06:00,77.8,70.0,29.84,South,169,8.0,15.0,77,0.00,,,0.10,LWC V2.10 B1813,2013-08-02 22:06:00,
2013-08-02 18:11:00,77.8,69.2,29.85,SE,146,11.0,15.0,75,0.00,,,0.10,LWC V2.10 B1813,2013-08-02 22:11:00,
2013-08-02 18:16:00,77.5,69.7,29.85,SSE,161,7.0,13.0,77,0.00,,,0.10,LWC V2.10 B1813,2013-08-02 22:16:00,
2013-08-02 18:22:00,77.0,69.2,29.86,SSE,161,5.0,17.0,77,0.00,,,0.10,LWC V2.10 B1813,2013-08-02 22:22:00,
2013-08-02 18:27:00,76.6,69.2,29.85,SSE,151,9.0,14.0,78,0.00,,,0.10,LWC V2.10 B1813,2013-08-02 22:27:00,
2013-08-02 18:32:00,76.5,69.5,29.85,ESE,117,4.0,11.0,79,0.00,,,0.10,LWC V2.10 B1813,2013-08-02 22:32:00,
2013-08-02 18:37:00,76.5,69.1,29.86,SSW,200,5.0,17.0,78,0.00,,,0.10,LWC V2.10 B1813,2013-08-02 22:37:00,
2013-08-02 18:43:00,76.5,69.5,29.85,SSE,159,10.0,12.0,79,0.00,,,0.10,LWC V2.10 B1813,2013-08-02 22:43:00,
2013-08-02 18:48:00,76.4,69.4,29.85,SSE,159,11.0,17.0,79,0.00,,,0.10,LWC V2.10 B1813,2013-08-02 22:48:00,
2013-08-02 18:53:00,76.2,68.8,29.85,South,175,16.0,16.0,78,0.00,,,0.10,LWC V2.10 B1813,2013-08-02 22:53:00,
2013-08-02 18:58:00,76.0,68.6,29.85,SSE,153,10.0,15.0,78,0.00,,,0.10,LWC V2.10 B1813,2013-08-02 22:58:00,
2013-08-02 19:04:00,75.9,68.9,29.84,SSE,164,10.0,17.0,79,0.00,,,0.10,LWC V2.10 B1813,2013-08-02 23:04:00,
2013-08-02 19:09:00,75.9,69.6,29.84,SE,135,9.0,15.0,81,0.00,,,0.10,LWC V2.10 B1813,2013-08-02 23:09:00,
2013-08-02 19:14:00,75.9,69.6,29.84,South,173,8.0,12.0,81,0.00,,,0.10,LWC V2.10 B1813,2013-08-02 23:14:00,
2013-08-02 19:19:00,75.8,69.5,29.84,SSW,198,10.0,16.0,81,0.00,,,0.10,LWC V2.10 B1813,2013-08-02 23:19:00,
2013-08-02 19:24:00,75.9,70.0,29.84,SSW,195,10.0,14.0,82,0.00,,,0.10,LWC V2.10 B1813,2013-08-02 23:24:00,
2013-08-02 19:30:00,76.0,70.1,29.85,ESE,103,5.0,13.0,82,0.00,,,0.10,LWC V2.10 B1813,2013-08-02 23:30:00,
2013-08-02 19:35:00,75.9,70.0,29.85,SSW,196,12.0,20.0,82,0.00,,,0.10,LWC V2.10 B1813,2013-08-02 23:35:00,
2013-08-02 19:40:00,75.9,69.6,29.85,South,175,12.0,18.0,81,0.00,,,0.10,LWC V2.10 B1813,2013-08-02 23:40:00,
2013-08-02 19:46:00,75.8,69.9,29.85,SSW,192,7.0,18.0,82,0.00,,,0.10,LWC V2.10 B1813,2013-08-02 23:46:00,
2013-08-02 19:51:00,75.7,69.4,29.85,South,181,7.0,12.0,81,0.00,,,0.10,LWC V2.10 B1813,2013-08-02 23:51:00,
2013-08-02 19:56:00,75.5,69.6,29.86,SSE,168,9.0,17.0,82,0.00,,,0.10,LWC V2.10 B1813,2013-08-02 23:56:00,
2013-08-02 20:02:00,75.4,69.9,29.86,SW,221,10.0,16.0,83,0.00,,,0.10,LWC V2.10 B1813,2013-08-03 00:02:00,
2013-08-02 20:07:00,75.4,69.9,29.86,South,184,3.0,13.0,83,0.00,,,0.10,LWC V2.10 B1813,2013-08-03 00:07:00,
2013-08-02 20:12:00,75.2,70.0,29.86,SSE,158,9.0,16.0,84,0.00,,,0.10,LWC V2.10 B1813,2013-08-03 00:12:00,
2013-08-02 20:18:00,75.1,69.9,29.86,South,190,3.0,18.0,84,0.00,,,0.10,LWC V2.10 B1813,2013-08-03 00:18:00,
2013-08-02 20:23:00,74.9,70.1,29.86,SSE,157,7.0,16.0,85,0.00,,,0.10,LWC V2.10 B1813,2013-08-03 00:23:00,
2013-08-02 20:28:00,74.8,70.3,29.86,SSE,153,8.0,11.0,86,0.00,,,0.10,LWC V2.10 B1813,2013-08-03 00:28:00,
2013-08-02 20:33:00,74.7,70.2,29.87,SW,216,5.0,14.0,86,0.00,,,0.10,LWC V2.10 B1813,2013-08-03 00:33:00,
2013-08-02 20:39:00,74.6,70.5,29.87,South,169,4.0,14.0,87,0.00,,,0.10,LWC V2.10 B1813,2013-08-03 00:39:00,
2013-08-02 20:44:00,74.6,70.5,29.87,SW,223,12.0,19.0,87,0.00,,,0.10,LWC V2.10 B1813,2013-08-03 00:44:00,
2013-08-02 20:49:00,74.6,70.8,29.87,SE,144,9.0,12.0,88,0.00,,,0.10,LWC V2.10 B1813,2013-08-03 00:49:00,
2013-08-02 20:54:00,74.5,70.7,29.87,West,272,6.0,17.0,88,0.00,,,0.10,LWC V2.10 B1813,2013-08-03 00:54:00,
2013-08-02 20:59:00,74.4,70.9,29.87,SE,129,11.0,16.0,89,0.00,,,0.10,LWC V2.10 B1813,2013-08-03 00:59:00,
2013-08-02 21:05:00,74.3,70.8,29.87,SSW,200,8.0,15.0,89,0.00,,,0.10,LWC V2.10 B1813,2013-08-03 01:05:00,
2013-08-02 21:10:00,74.3,71.2,29.88,South,178,7.0,10.0,90,0.00,,,0.10,LWC V2.10 B1813,2013-08-03 01:10:00,
2013-08-02 21:15:00,74.3,71.2,29.88,SSW,192,7.0,15.0,90,0.00,,,0.10,LWC V2.10 B1813,2013-08-03 01:15:00,
2013-08-02 21:21:00,74.1,71.0,29.88,South,187,11.0,15.0,90,0.00,,,0.10,LWC V2.10 B1813,2013-08-03 01:21:00,
2013-08-02 21:26:00,74.1,71.3,29.87,South,174,7.0,12.0,91,0.00,,,0.10,LWC V2.10 B1813,2013-08-03 01:26:00,
2013-08-02 21:31:00,74.2,71.4,29.88,South,183,2.0,10.0,91,0.00,,,0.10,LWC V2.10 B1813,2013-08-03 01:31:00,
2013-08-02 21:37:00,74.2,71.4,29.88,SSW,202,4.0,11.0,91,0.00,,,0.10,LWC V2.10 B1813,2013-08-03 01:37:00,
2013-08-02 21:42:00,74.1,71.3,29.88,SSW,212,5.0,12.0,91,0.00,,,0.10,LWC V2.10 B1813,2013-08-03 01:42:00,
2013-08-02 21:47:00,74.1,71.3,29.88,SSE,150,7.0,7.0,91,0.00,,,0.10,LWC V2.10 B1813,2013-08-03 01:47:00,
2013-08-02 21:52:00,74.1,71.6,29.88,SSW,198,3.0,5.0,92,0.00,,,0.10,LWC V2.10 B1813,2013-08-03 01:52:00,
2013-08-02 21:58:00,74.1,71.6,29.88,South,183,5.0,11.0,92,0.00,,,0.10,LWC V2.10 B1813,2013-08-03 01:58:00,
2013-08-02 22:03:00,74.2,71.7,29.88,SSE,152,6.0,11.0,92,0.00,,,0.10,LWC V2.10 B1813,2013-08-03 02:03:00,
2013-08-02 22:08:00,74.1,71.6,29.88,South,186,4.0,8.0,92,0.00,,,0.10,LWC V2.10 B1813,2013-08-03 02:08:00,
2013-08-02 22:14:00,74.2,71.7,29.88,SSW,204,6.0,10.0,92,0.00,,,0.10,LWC V2.10 B1813,2013-08-03 02:14:00,
2013-08-02 22:19:00,74.2,71.7,29.88,SSW,202,3.0,12.0,92,0.00,,,0.10,LWC V2.10 B1813,2013-08-03 02:19:00,
2013-08-02 22:24:00,74.4,71.9,29.88,SSW,208,8.0,10.0,92,0.00,,,0.10,LWC V2.10 B1813,2013-08-03 02:24:00,
2013-08-02 22:29:00,74.5,71.7,29.88,SSW,209,4.0,8.0,91,0.00,,,0.10,LWC V2.10 B1813,2013-08-03 02:29:00,
2013-08-02 22:35:00,74.7,71.9,29.88,South,190,4.0,12.0,91,0.00,,,0.10,LWC V2.10 B1813,2013-08-03 02:35:00,
2013-08-02 22:40:00,74.8,71.7,29.88,SW,217,10.0,11.0,90,0.00,,,0.10,LWC V2.10 B1813,2013-08-03 02:40:00,
2013-08-02 22:45:00,74.9,71.8,29.88,South,180,1.0,6.0,90,0.00,,,0.10,LWC V2.10 B1813,2013-08-03 02:45:00,
2013-08-02 22:50:00,74.9,71.8,29.88,SE,145,4.0,10.0,90,0.00,,,0.10,LWC V2.10 B1813,2013-08-03 02:50:00,
2013-08-02 22:56:00,75.1,72.0,29.88,South,175,9.0,11.0,90,0.00,,,0.10,LWC V2.10 B1813,2013-08-03 02:56:00,
2013-08-02 23:01:00,75.0,71.9,29.88,South,188,13.0,13.0,90,0.00,,,0.10,LWC V2.10 B1813,2013-08-03 03:01:00,
2013-08-02 23:06:00,74.7,71.2,29.88,SSE,148,9.0,11.0,89,0.00,,,0.10,LWC V2.10 B1813,2013-08-03 03:06:00,
2013-08-02 23:11:00,74.7,71.6,29.88,SSW,192,9.0,10.0,90,0.00,,,0.10,LWC V2.10 B1813,2013-08-03 03:11:00,
2013-08-02 23:17:00,74.6,71.5,29.88,SSE,167,6.0,11.0,90,0.00,,,0.10,LWC V2.10 B1813,2013-08-03 03:17:00,
2013-08-02 23:22:00,74.6,71.5,29.88,ESE,117,9.0,12.0,90,0.00,,,0.10,LWC V2.10 B1813,2013-08-03 03:22:00,
2013-08-02 23:27:00,74.8,71.3,29.88,SSE,165,1.0,8.0,89,0.00,,,0.10,LWC V2.10 B1813,2013-08-03 03:27:00,
2013-08-02 23:32:00,74.9,71.8,29.88,South,183,11.0,14.0,90,0.00,,,0.10,LWC V2.10 B1813,2013-08-03 03:32:00,
2013-08-02 23:37:00,75.0,71.5,29.88,South,171,8.0,12.0,89,0.00,,,0.10,LWC V2.10 B1813,2013-08-03 03:37:00,
2013-08-02 23:43:00,75.2,71.7,29.88,SE,144,4.0,15.0,89,0.00,,,0.10,LWC V2.10 B1813,2013-08-03 03:43:00,
2013-08-02 23:48:00,75.3,71.5,29.88,SSW,211,9.0,15.0,88,0.00,,,0.10,LWC V2.10 B1813,2013-08-03 03:48:00,
2013-08-02 23:53:00,75.4,71.9,29.90,SSW,195,8.0,12.0,89,0.00,,,0.10,LWC V2.10 B1813,2013-08-03 03:53:00,
2013-08-02 23:59:00,74.8,70.7,29.89,SW,225,1.0,12.0,87,0.00,,,0.10,LWC V2.10 B1813,2013-08-03 03:59:00,